Home   Weather   Neuwied   Past weeks
Flag for Germany

Past Weather in Neuwied, Rhineland-Palatinate, Germany — Yesterday and Last 2 Weeks

Now
45 °F

Quite cool.


Feels Like: 41 °F
Forecast: 51 / 29 °F
Wind: 7 mph from East

Location: Buechel

Current Time: Apr 1, 2020 at 8:47:19 pm

Latest Report: Apr 1, 2020 at 7:20 pm


Visibility: N/A

Pressure: 30.01 "Hg

Humidity: 31%

Dew Point: 16 °F

Location of NeuwiedLocation

Past Weather in Neuwied — Graph

°F

Neuwied Temperature Yesterday

Maximum temperature yesterday: 43 °F (at 5:20 pm)
Minimum temperature yesterday: 34 °F (at 2:20 am)
Average temperature yesterday: 37 °F

High & Low Weather Summary for the Past Weeks

 TemperatureHumidityPressure
High57 °F (Mar 19, 1:20 pm)100% (Mar 21, 8:20 am)30.45 "Hg (Mar 21, 8:20 am)
Low25 °F (Mar 30, 6:20 am)22% (Mar 24, 4:20 pm)30.01 "Hg (Mar 27, 4:20 am)
Average40 °F57%30.23 "Hg
* Reported Mar 17 6:20 pm — Apr 1 7:20 pm, Neuwied. Weather by CustomWeather, © 2020

Note: Actual official high and low records may vary slightly from our data, if they occured in-between our weather recording intervals... More about our weather records

Neuwied Weather History for the Previous 24 Hours

Scroll right to see more
 ConditionsComfort  
Time TempWeatherWind HumidityBarometerVisibility
7:20 pm
Wed, Apr 1
45 °FQuite cool.7 mph31%30.01 "HgN/A
6:54 pm45 °FQuite cool.8 mph34%30.01 "HgN/A
6:20 pm46 °FCool.8 mph32%30.01 "HgN/A
5:20 pm46 °FCool.8 mph32%30.01 "HgN/A
4:20 pm46 °FCool.5 mph32%30.04 "HgN/A
3:20 pm45 °FQuite cool.6 mph31%30.07 "HgN/A
2:20 pm43 °FQuite cool.3 mph34%30.07 "HgN/A
1:20 pm43 °FQuite cool.7 mph34%30.09 "HgN/A
12:20 pm41 °FQuite cool.5 mph39%30.12 "HgN/A
11:20 am39 °FPassing clouds.3 mph39%30.15 "HgN/A
10:20 am37 °FPassing clouds.2 mph41%30.15 "HgN/A
10:03 am37 °FPassing clouds.2 mph41%30.15 "HgN/A
9:20 am34 °FChilly.3 mph48%30.15 "HgN/A
8:20 am30 °FChilly.3 mph59%30.15 "HgN/A
7:20 am28 °FChilly.3 mph59%30.15 "HgN/A
6:20 am30 °FChilly.3 mph55%30.18 "HgN/A
5:20 am30 °FChilly.5 mph55%30.18 "HgN/A
4:20 am30 °FChilly.5 mph55%30.18 "HgN/A
3:20 am30 °FChilly.5 mph59%30.21 "HgN/A
2:20 am32 °FChilly.2 mph51%30.21 "HgN/A
1:20 am32 °FChilly.5 mph55%30.24 "HgN/A
12:20 am34 °FChilly.5 mph51%30.24 "HgN/A
11:20 pm
Tue, Mar 31
34 °FChilly.5 mph51%30.24 "HgN/A
10:20 pm36 °FChilly.8 mph48%30.27 "HgN/A
9:20 pm37 °FChilly.5 mph45%30.27 "HgN/A
8:20 pm39 °FChilly.5 mph45%30.27 "HgN/A
Weather by CustomWeather, © 2020

See weather overview

Advertising